AT170 Weather Reports


time (UTC)temp
C
wind
direction
speed
KPH
gust
KPH
rain 1hr
cm
rain 24hr
cm
rain mn
cm
humidity
%
barometer
mb
20260510210006 12 205 0.0 4.8 0.00 0.43 0.41 79 1012.5
20260510203005 12 205 0.0 4.8 0.00 0.61 0.41 80 1012.3
20260510193005 12 205 0.0 4.8 0.00 0.69 0.41 76 1011.4
20260510180004 14 200 1.6 16.1 0.00 0.71 0.41 67 1010.8
20260510173004 15 202 0.0 20.9 0.00 0.71 0.41 66 1010.9
20260510170004 15 229 0.0 8.0 0.00 0.71 0.41 63 1010.7
20260510163005 15 208 0.0 19.3 0.00 0.71 0.41 64 1010.7
20260510153007 14 209 1.6 16.1 0.00 0.71 0.41 68 1010.7
20260510143005 12 228 0.0 4.8 0.00 0.71 0.41 80 1011.1
20260510133004 12 216 0.0 8.0 0.00 0.71 0.41 85 1011.1
20260510130005 12 198 1.6 22.5 0.00 0.71 0.41 84 1010.9
20260510123005 12 197 4.8 19.3 0.00 0.71 0.41 86 1011.2
20260510120004 11 199 0.0 19.3 0.08 0.79 0.41 89 1011.1
20260510113005 10 215 0.0 9.7 0.10 0.89 0.41 90 1011.3
20260510110005 11 215 0.0 4.8 0.18 0.81 0.33 90 1011.4
20260510100004 13 198 0.0 19.3 0.00 0.79 0.15 82 1010.4
20260510093005 13 178 4.8 19.3 0.00 0.79 0.15 84 1010.4
20260510083004 11 182 1.6 19.3 0.00 0.79 0.15 90 1010.9
20260510073006 11 222 1.6 9.7 0.00 0.79 0.15 90 1011.1
20260510070005 10 232 0.0 11.3 0.00 0.79 0.15 90 1011.0
20260510063004 10 245 0.0 3.2 0.00 0.79 0.15 90 1010.9
20260510060004 10 245 0.0 1.6 0.00 0.79 0.15 90 1010.9
20260510043004 8 245 0.0 0.0 0.00 0.81 0.15 90 1010.8
20260510040006 8 245 0.0 0.0 0.00 0.81 0.15 90 1010.8
20260510033006 9 245 0.0 0.0 0.00 0.81 0.15 90 1010.9
20260510020005 10 245 0.0 4.8 0.00 0.81 0.15 90 1011.1
20260510013005 10 245 0.0 0.0 0.03 0.81 0.15 90 1011.3
20260510010005 10 245 0.0 4.8 0.03 0.81 0.15 90 1011.3
20260510003004 10 246 0.0 0.0 0.00 0.79 0.13 90 1011.5
20260510000005 10 246 0.0 1.6 0.03 0.79 0.13 90 1011.5
20260509233004 10 246 0.0 8.0 0.05 0.79 0.13 90 1011.7
20260509230004 10 250 1.6 4.8 0.10 0.79 0.10 90 1011.4
20260509223005 10 257 0.0 1.6 0.05 0.74 0.05 90 1011.4
20260509213005 10 257 0.0 0.0 0.20 0.69 0.69 89 1010.9